[[{"header":{"parameterUnit":"m.s-1","parameterCategory":1,"la1":30.2991,"la2":30.254,"lo1":-89.0895,"lo2":-89.0444,"dy":0.0017,"dx":0.0017,"nx":28,"ny":28,"refTime":"2024-04-29T03:00:00:Z","depth":0,"parameterNumber":2,"parameterNumberName":"U-component_of_WINDS"},"data":[0,0,0,0,0,0,0,0,0,0,0,0,0,0,0,0,0,0,0,0,0,0,0,0,0,0,0,0,0,0,0,0,0,0,0,0,0,0,0,0,0,0,0,0,0,0,0,0,0,0,0,0,0,0,0,0,0,0,-2.35,-2.3498,0,-2.3352,-2.3351,-2.3349,-2.3205,-2.3203,-2.3201,-2.3199,-2.306,-2.3058,-2.3056,0,0,0,0,0,0,0,0,0,0,0,0,0,-2.367,-2.3667,-2.35,-2.3498,-2.3496,-2.3353,-2.3351,-2.3349,-2.3205,-2.3203,-2.32,-2.3198,-2.306,-2.3058,-2.3056,0,0,0,0,0,0,0,0,0,0,0,0,0,-2.3567,-2.3667,-2.35,-2.3407,-2.3397,-2.3353,-2.3351,-2.3348,-2.3206,-2.3203,-2.32,-2.3197,-2.3061,-2.3058,-2.3056,-2.3095,0,0,-2.3047,-2.3045,0,0,0,0,0,0,0,0,-2.3573,-2.3561,-2.3423,-2.3413,-2.3402,-2.3294,-2.3359,-2.3264,-2.3206,-2.3279,-2.3199,-2.3196,-2.3141,-2.3131,-2.311,-2.3089,-2.3083,-2.3046,-2.3045,-2.3043,-2.3043,0,0,0,0,0,0,0,-2.358,-2.3567,-2.3442,-2.3421,-2.3408,-2.3377,-2.3359,-2.3341,-2.3228,-2.3272,-2.3261,-2.3245,-2.3135,-2.3113,-2.3106,-2.3081,-2.3047,-2.3044,-2.3042,-2.3041,-2.3085,-2.3088,0,0,0,0,0,0,-2.36,-2.3573,-2.3447,-2.3437,-2.3482,-2.3376,-2.3356,-2.3332,-2.3228,-2.3209,-2.3248,-2.3239,-2.312,-2.3109,-2.31,-2.3138,-2.3043,-2.3041,-2.3039,-2.3082,-2.3086,-2.3089,0,0,0,0,0,0,-2.3604,-2.359,-2.3453,-2.3502,-2.3482,-2.3376,-2.335,-2.333,-2.3308,-2.3209,-2.319,-2.3245,-2.3117,-2.3104,-2.3097,-2.3132,-2.3039,-2.3037,-2.3079,-2.3083,-2.3087,-2.3216,0,0,0,0,0,0,-2.361,-2.3592,-2.3603,-2.3503,-2.348,-2.3448,-2.3352,-2.333,-2.3302,-2.3289,-2.3202,-2.3185,-2.3114,-2.3102,-2.3094,-2.3126,-2.3035,-2.3075,-2.3081,-2.3086,-2.3208,-2.3224,-2.3238,0,0,0,0,0,-2.3616,-2.3648,-2.3604,-2.359,-2.3491,-2.345,-2.3437,-2.3351,-2.3306,-2.3317,-2.3254,-2.3188,-2.313,-2.3102,-2.3092,-2.3124,-2.3072,-2.3079,-2.3085,-2.3202,-2.3221,-2.3238,0,0,0,0,0,0,-2.3758,-2.3633,-2.3583,-2.3583,-2.3528,-2.3426,-2.3437,-2.3375,-2.3335,-2.3325,-2.3224,-2.3206,-2.321,-2.3167,-2.3138,-2.3157,-2.3092,-2.3097,-2.3184,-2.3202,-2.3217,-2.3225,-2.3032,0,0,0,0,0,-2.3789,-2.3762,-2.3656,-2.3667,-2.3641,-2.3545,-2.3524,-2.3462,-2.3403,-2.338,-2.3316,-2.3264,-2.3234,-2.3216,-2.3183,-2.3203,-2.3182,-2.3221,-2.3236,-2.3248,-2.3253,-2.326,-2.3275,-2.311,-2.311,-2.311,0,0,-2.3853,-2.3782,-2.3771,-2.3693,-2.3643,-2.3621,-2.3526,-2.3507,-2.349,-2.3378,-2.3364,-2.3317,-2.3253,-2.3259,-2.3258,-2.3223,-2.3294,-2.3257,-2.3268,-2.3265,-2.3268,-2.3284,-2.3298,-2.3115,-2.3114,-2.3113,0,0,-2.3957,-2.3901,-2.3902,-2.3853,-2.3777,-2.3713,-2.3715,-2.3622,-2.3584,-2.3569,-2.3484,-2.3467,-2.3417,-2.3374,-2.3346,-2.3437,-2.3374,-2.343,-2.3507,-2.3515,-2.3528,-2.3539,-2.357,-2.3583,-2.3436,-2.3436,-2.3436,0,-2.4047,-2.4006,-2.3912,-2.3896,-2.3865,-2.376,-2.3762,-2.3722,-2.3642,-2.3624,-2.3586,-2.3521,-2.3471,-2.3465,-2.3487,-2.3469,-2.3468,-2.3438,-2.3533,-2.3543,-2.3552,-2.3581,-2.3593,-2.3443,-2.3442,-2.3442,-2.3441,0,-2.412,-2.4093,-2.4105,-2.4024,-2.3995,-2.399,-2.3898,-2.3881,-2.3824,-2.3766,-2.3753,-2.3689,-2.3641,-2.3636,-2.3582,-2.3623,-2.3603,-2.3551,-2.3483,-2.3577,-2.3602,-2.3612,-2.3453,-2.3451,-2.3449,-2.3447,0,0,-2.4306,-2.4174,-2.4179,-2.4141,-2.4052,-2.4031,-2.4024,-2.3972,-2.3959,-2.391,-2.39,-2.3862,-2.3812,-2.3781,-2.3722,-2.373,-2.3804,-2.3676,-2.3673,-2.37,-2.3846,-2.3883,-2.3897,-2.3764,-2.3766,-2.3767,-2.385,0,-2.4393,-2.4364,-2.4281,-2.428,-2.4255,-2.4157,-2.415,-2.4096,-2.4043,-2.4017,-2.396,-2.3933,-2.3871,-2.3851,-2.3854,-2.3794,-2.3832,-2.3788,-2.3756,-2.3756,-2.3771,-2.391,-2.3949,-2.403,-2.3859,-2.3861,-2.3862,0,-2.4489,-2.444,-2.4436,-2.4346,-2.4333,-2.4327,-2.4274,-2.425,-2.419,-2.415,-2.4116,-2.4049,-2.4038,-2.3978,-2.3963,-2.3935,-2.3918,-2.3887,-2.3888,-2.3879,-2.3812,-2.3903,-2.4054,-2.4066,-2.3877,-2.3876,-2.3875,0,-2.4622,-2.4557,-2.4544,-2.4516,-2.4413,-2.4411,-2.4369,-2.4304,-2.4279,-2.4236,-2.4219,-2.4177,-2.4153,-2.4124,-2.4049,-2.4012,-2.4042,-2.3975,-2.401,-2.4012,-2.4018,-2.4018,-2.4166,-2.4013,-2.4013,-2.4013,-2.4013,0,-2.4726,-2.4726,-2.4602,-2.4595,-2.4594,-2.4501,-2.4504,-2.4454,-2.4398,-2.4381,-2.4298,-2.4285,-2.4188,-2.4166,-2.4109,-2.4104,-2.4096,-2.4065,-2.4049,-2.407,-2.4074,-2.4055,-2.4046,-2.4016,-2.4015,-2.4015,-2.4014,0,-2.4872,-2.4789,-2.4769,-2.4673,-2.4649,-2.4652,-2.4571,-2.4563,-2.4505,-2.4486,-2.4476,-2.4387,-2.4356,-2.4279,-2.4231,-2.4192,-2.4203,-2.4176,-2.4222,-2.4211,-2.4249,-2.4246,-2.4388,-2.4402,-2.4244,-2.4245,-2.4247,0,-2.4942,-2.4939,-2.4841,-2.4822,-2.4782,-2.4753,-2.4726,-2.4637,-2.4613,-2.4544,-2.4545,-2.4507,-2.4471,-2.4428,-2.4361,-2.4324,-2.4293,-2.4346,-2.4287,-2.4308,-2.4291,-2.4291,-2.429,-2.4358,-2.436,-2.4362,-2.4363,0,-2.5074,-2.5033,-2.4995,-2.4943,-2.4913,-2.4869,-2.4821,-2.4812,-2.4712,-2.4691,-2.4656,-2.4628,-2.4577,-2.4541,-2.4493,-2.4454,-2.4393,-2.4383,-2.4388,-2.4408,-2.4434,-2.4418,-2.4254,-2.4379,-2.4378,-2.4376,-2.4376,-2.4375,-2.5182,-2.5175,-2.5104,-2.5065,-2.5019,-2.4977,-2.4963,-2.4903,-2.4871,-2.4818,-2.477,-2.474,-2.4682,-2.4611,-2.4576,-2.4555,-2.4523,-2.4532,-2.4533,-2.4536,-2.4545,-2.444,-2.4547,-2.4546,-2.4545,-2.4545,-2.4545,0,-2.5307,-2.5257,-2.5222,-2.5155,-2.5126,-2.5068,-2.5013,-2.4993,-2.4967,-2.4916,-2.4882,-2.4843,-2.4809,-2.474,-2.4699,-2.4696,-2.4667,-2.4688,-2.4686,-2.4678,-2.4577,-2.4574,-2.4712,-2.4712,-2.4712,-2.4712,-2.4712,-2.4712,-2.5368,-2.5352,-2.5304,-2.5266,-2.5217,-2.5183,-2.5157,-2.5118,-2.5077,-2.5036,-2.5004,-2.4959,-2.4901,-2.4856,-2.4823,-2.4804,-2.4792,-2.4822,-2.4795,-2.4701,-2.4685,-2.467,-2.4667,-2.4821,-2.4821,-2.4896,-2.4897,-2.4898]},{"header":{"parameterUnit":"m.s-1","parameterCategory":1,"la1":30.2991,"la2":30.254,"lo1":-89.0895,"lo2":-89.0444,"dy":0.0017,"dx":0.0017,"nx":28,"ny":28,"refTime":"2024-04-29T03:00:00:Z","depth":0,"parameterNumber":3,"parameterNumberName":"V-component_of_WINDS"},"data":[0,0,0,0,0,0,0,0,0,0,0,0,0,0,0,0,0,0,0,0,0,0,0,0,0,0,0,0,0,0,0,0,0,0,0,0,0,0,0,0,0,0,0,0,0,0,0,0,0,0,0,0,0,0,0,0,0,0,-1.6175,-1.6172,0,-1.5884,-1.5881,-1.5878,-1.5759,-1.5759,-1.576,-1.5761,-1.5443,-1.5434,-1.5425,0,0,0,0,0,0,0,0,0,0,0,0,0,-1.6607,-1.66,-1.6175,-1.6172,-1.6168,-1.5885,-1.5881,-1.5877,-1.5759,-1.5759,-1.576,-1.5761,-1.5446,-1.5435,-1.5424,0,0,0,0,0,0,0,0,0,0,0,0,0,-1.6378,-1.6598,-1.6176,-1.6075,-1.6064,-1.5886,-1.5881,-1.5876,-1.5758,-1.5759,-1.576,-1.5761,-1.545,-1.5436,-1.5423,-1.5317,0,0,-1.5381,-1.5375,0,0,0,0,0,0,0,0,-1.6391,-1.6362,-1.6094,-1.6082,-1.6068,-1.5859,-1.5916,-1.5688,-1.5758,-1.5874,-1.5761,-1.5762,-1.5579,-1.5555,-1.5498,-1.5302,-1.5289,-1.538,-1.5372,-1.5366,-1.5362,0,0,0,0,0,0,0,-1.6407,-1.6374,-1.6059,-1.609,-1.6074,-1.6038,-1.6006,-1.5873,-1.5723,-1.5864,-1.5854,-1.5823,-1.5572,-1.5511,-1.5489,-1.5284,-1.538,-1.5368,-1.536,-1.5354,-1.4981,-1.498,0,0,0,0,0,0,-1.6443,-1.6388,-1.6069,-1.6051,-1.6236,-1.6029,-1.5994,-1.5925,-1.5725,-1.5696,-1.5822,-1.5818,-1.5534,-1.5505,-1.5478,-1.5337,-1.5366,-1.5353,-1.5345,-1.4983,-1.4981,-1.4979,0,0,0,0,0,0,-1.6452,-1.6415,-1.608,-1.6217,-1.6172,-1.6021,-1.5944,-1.5919,-1.5857,-1.5694,-1.5664,-1.5788,-1.5534,-1.5497,-1.5358,-1.5324,-1.5347,-1.5334,-1.4985,-1.4982,-1.498,-1.5058,0,0,0,0,0,0,-1.6465,-1.642,-1.6383,-1.6217,-1.6165,-1.5973,-1.5942,-1.5912,-1.5836,-1.5829,-1.5654,-1.5626,-1.5532,-1.5379,-1.5345,-1.5306,-1.5324,-1.4987,-1.4984,-1.4981,-1.5057,-1.5058,-1.5059,0,0,0,0,0,-1.6481,-1.6413,-1.6382,-1.6344,-1.6117,-1.5971,-1.594,-1.5839,-1.5835,-1.5793,-1.5687,-1.5631,-1.5335,-1.5366,-1.5326,-1.5283,-1.4989,-1.4985,-1.4981,-1.5057,-1.5058,-1.5059,0,0,0,0,0,0,-1.6572,-1.639,-1.6353,-1.6231,-1.6118,-1.5952,-1.5896,-1.5844,-1.5725,-1.5722,-1.5595,-1.5556,-1.5427,-1.5341,-1.5379,-1.5167,-1.5157,-1.5145,-1.5228,-1.5228,-1.5229,-1.525,-1.5312,0,0,0,0,0,-1.658,-1.6484,-1.6326,-1.6233,-1.6179,-1.6048,-1.598,-1.5913,-1.5788,-1.5738,-1.5621,-1.5497,-1.5375,-1.5297,-1.5176,-1.5045,-1.5001,-1.4995,-1.4996,-1.4997,-1.4987,-1.4905,-1.4899,-1.4966,-1.4966,-1.4966,0,0,-1.6591,-1.6479,-1.6425,-1.6249,-1.6153,-1.6049,-1.6008,-1.59,-1.5819,-1.5719,-1.5582,-1.5492,-1.5344,-1.5208,-1.5142,-1.5132,-1.4959,-1.4993,-1.4995,-1.4983,-1.4901,-1.4894,-1.4889,-1.4964,-1.4964,-1.4965,0,0,-1.6558,-1.6467,-1.6378,-1.6284,-1.6143,-1.6056,-1.6035,-1.5875,-1.5813,-1.5676,-1.5597,-1.5495,-1.529,-1.5186,-1.5107,-1.5033,-1.4975,-1.4997,-1.4999,-1.4921,-1.4915,-1.491,-1.4878,-1.4869,-1.4988,-1.4988,-1.4988,0,-1.6588,-1.6436,-1.6337,-1.6234,-1.6155,-1.6066,-1.597,-1.5882,-1.5705,-1.565,-1.5643,-1.5381,-1.5275,-1.5112,-1.5094,-1.5034,-1.5,-1.5015,-1.4926,-1.4919,-1.4912,-1.488,-1.4869,-1.4991,-1.4991,-1.4991,-1.499,0,-1.6477,-1.6371,-1.6315,-1.6154,-1.6069,-1.597,-1.5849,-1.5774,-1.5713,-1.5625,-1.5481,-1.5352,-1.5201,-1.5158,-1.5095,-1.4983,-1.498,-1.4952,-1.4937,-1.4911,-1.4878,-1.4866,-1.4996,-1.4995,-1.4994,-1.4993,0,0,-1.6492,-1.6279,-1.6259,-1.6183,-1.6019,-1.5932,-1.5826,-1.5685,-1.562,-1.55,-1.5403,-1.5231,-1.5203,-1.5112,-1.5037,-1.4969,-1.4912,-1.4947,-1.4941,-1.494,-1.4773,-1.4793,-1.4782,-1.4875,-1.4872,-1.487,-1.4784,0,-1.6435,-1.6249,-1.6156,-1.6006,-1.5903,-1.5816,-1.5722,-1.5608,-1.5522,-1.5416,-1.5317,-1.5196,-1.5171,-1.5115,-1.5045,-1.4935,-1.4876,-1.494,-1.4775,-1.477,-1.4811,-1.4765,-1.4786,-1.4712,-1.4771,-1.4769,-1.4768,0,-1.6343,-1.623,-1.6072,-1.5918,-1.5871,-1.579,-1.565,-1.5554,-1.5419,-1.536,-1.526,-1.5186,-1.5063,-1.5061,-1.4885,-1.4931,-1.4857,-1.4792,-1.4787,-1.4763,-1.4765,-1.4736,-1.4686,-1.4673,-1.4748,-1.4749,-1.4751,0,-1.6365,-1.6173,-1.6052,-1.599,-1.5809,-1.5752,-1.5672,-1.554,-1.5459,-1.5335,-1.528,-1.5142,-1.5064,-1.4955,-1.4843,-1.4853,-1.4675,-1.4666,-1.4616,-1.4619,-1.4579,-1.4582,-1.4512,-1.454,-1.4541,-1.4541,-1.4541,0,-1.6308,-1.6213,-1.606,-1.5986,-1.5874,-1.5766,-1.5656,-1.5568,-1.5451,-1.5351,-1.5266,-1.5173,-1.5033,-1.492,-1.4831,-1.4695,-1.4662,-1.4605,-1.4581,-1.461,-1.4617,-1.4557,-1.4557,-1.4538,-1.4538,-1.4539,-1.454,0,-1.6313,-1.6207,-1.607,-1.591,-1.5867,-1.5792,-1.5651,-1.5571,-1.5481,-1.5356,-1.532,-1.5176,-1.5039,-1.4918,-1.4734,-1.4674,-1.4532,-1.4506,-1.458,-1.4566,-1.4522,-1.4526,-1.4406,-1.4382,-1.4433,-1.4433,-1.4433,0,-1.6282,-1.6208,-1.6041,-1.5972,-1.5896,-1.5785,-1.5704,-1.5591,-1.5508,-1.5348,-1.5285,-1.5144,-1.5024,-1.4807,-1.4681,-1.4538,-1.4504,-1.4472,-1.4482,-1.4511,-1.4497,-1.4501,-1.4489,-1.4471,-1.4471,-1.4472,-1.4472,0,-1.6236,-1.6187,-1.6078,-1.5948,-1.5855,-1.5746,-1.5633,-1.558,-1.5444,-1.5354,-1.5217,-1.5124,-1.4939,-1.4795,-1.4639,-1.4548,-1.4483,-1.4471,-1.445,-1.4476,-1.452,-1.449,-1.4576,-1.4472,-1.4472,-1.4472,-1.4472,-1.4472,-1.6218,-1.6147,-1.6018,-1.5897,-1.5802,-1.5698,-1.5615,-1.5515,-1.5401,-1.5245,-1.5184,-1.5041,-1.4901,-1.4686,-1.4595,-1.4476,-1.4464,-1.4437,-1.4429,-1.4422,-1.4425,-1.4544,-1.4447,-1.4447,-1.4447,-1.4447,-1.4447,0,-1.6164,-1.6078,-1.5968,-1.5815,-1.5718,-1.5675,-1.5546,-1.5465,-1.5344,-1.5222,-1.5107,-1.4945,-1.4805,-1.4669,-1.4519,-1.445,-1.4416,-1.4414,-1.4415,-1.4393,-1.4446,-1.4476,-1.4443,-1.4443,-1.4443,-1.4443,-1.4443,-1.4443,-1.6125,-1.6,-1.5935,-1.5759,-1.567,-1.5536,-1.5466,-1.5366,-1.5269,-1.5094,-1.498,-1.4894,-1.4763,-1.4604,-1.447,-1.4433,-1.4379,-1.4384,-1.4337,-1.4388,-1.439,-1.4392,-1.4419,-1.4374,-1.4374,-1.4293,-1.4292,-1.4292]}]]